Home > Time Zones > World Clock > Weather > Serbia > Niš > Past weeks

Flag for Serbia Weather past 2 weeks in Niš, Serbia

Now
39 °F

Passing clouds.


Feels Like: 36 °F
Forecast: 39 / 52 °F
Wind: 5 mph from Southeast

Location: Nis Airport

Current Time: Jan 30, 2015 at 1:30:26 AM

Latest Report: Jan 30, 2015 at 1:00 AM


Visibility: N/A

Pressure: 29.50 "Hg

Humidity: 81%

Dew point: 34 °F

Location of NišLocation

Historic Weather in Niš — Graph

°F

Niš temperature yesterday

Maximum temperature yesterday: 46 °F (at 2:00 PM)
Minimum temperature yesterday: 32 °F (at 12:00 AM)
Average temperature yesterday: 38 °F

Past Weeks' High & Low Weather Summary

 TemperatureHumidityPressure
High63 °F (Jan 21, 2:30 PM)100% (Jan 15, 1:30 AM)30.27 "Hg (Jan 15, 1:30 AM)
Low23 °F (Jan 16, 7:30 AM)36% (Jan 17, 2:30 PM)29.50 "Hg (Jan 30, 12:30 AM)
Average41 °F85%29.99 "Hg
* Reported Midnight between Jan 14 and Jan 15 — Jan 30 12:30 AM, Niš, Weather by CustomWeather, © 2014

Note: Actual official high and low records may vary slightly from our data, if they occured in-between our weather recording intervals... More about our weather records

Advertising

Niš weather history for previous 24 hours

 ConditionsComfort  
Time TempWeatherWind HumidityBarometerVisibility
12:30 AM
Jan 30
39 °FClear.6 mph81%29.50 "Hg10 mi
12:00 AM37 °FPassing clouds.6 mph87%29.53 "HgN/A
11:30 PM
Jan 29
37 °FClear.5 mph81%29.53 "Hg10 mi
11:00 PM39 °FPassing clouds.6 mph81%29.53 "HgN/A
10:30 PM37 °FPassing clouds.5 mph87%29.53 "HgN/A
10:00 PM39 °FClear.8 mph81%29.56 "Hg10 mi
9:30 PM36 °FClear.3 mph93%29.56 "Hg10 mi
9:00 PM37 °FClear.2 mph87%29.59 "Hg10 mi
8:30 PM37 °FClear.2 mph87%29.59 "Hg10 mi
8:00 PM39 °FClear.2 mph81%29.59 "Hg10 mi
7:30 PM39 °FClear.3 mph81%29.59 "Hg10 mi
7:00 PM41 °FPassing clouds.3 mph76%29.59 "HgN/A
6:30 PM43 °FPassing clouds.3 mph71%29.59 "HgN/A
6:00 PM43 °FPassing clouds.6 mph71%29.59 "HgN/A
5:30 PM43 °FPassing clouds.6 mph71%29.62 "HgN/A
5:00 PM43 °FPassing clouds.3 mph76%29.62 "HgN/A
4:30 PM43 °FPassing clouds.5 mph76%29.62 "HgN/A
4:00 PM45 °FPassing clouds.6 mph71%29.62 "HgN/A
3:30 PM45 °FPassing clouds.7 mph71%29.62 "HgN/A
3:00 PM46 °FPassing clouds.8 mph66%29.62 "HgN/A
2:30 PM46 °FPassing clouds.7 mph66%29.65 "HgN/A
2:00 PM46 °FPassing clouds.8 mph66%29.65 "HgN/A
1:30 PM45 °FScattered clouds.8 mph66%29.68 "HgN/A
1:00 PM45 °FPassing clouds.9 mph66%29.68 "HgN/A
12:30 PM43 °FPassing clouds.9 mph71%29.71 "HgN/A
12:00 PM45 °FPassing clouds.7 mph66%29.74 "HgN/A
11:30 AM43 °FPassing clouds.8 mph66%29.77 "HgN/A
11:00 AM43 °FPassing clouds.7 mph66%29.77 "HgN/A
10:30 AM39 °FPassing clouds.3 mph75%29.77 "HgN/A
10:00 AM37 °FPassing clouds.3 mph75%29.80 "HgN/A
9:30 AM36 °FScattered clouds.2 mph81%29.80 "Hg5 mi
9:00 AM37 °FScattered clouds.2 mph75%29.80 "Hg4 mi
8:30 AM34 °FScattered clouds.5 mph87%29.80 "Hg4 mi
8:00 AM32 °FPassing clouds.2 mph93%29.80 "Hg4 mi
7:30 AM32 °FScattered clouds.2 mph93%29.80 "Hg4 mi
7:00 AM32 °FScattered clouds.2 mph93%29.80 "Hg5 mi
6:30 AM32 °FPassing clouds.2 mph93%29.80 "Hg5 mi
6:00 AM34 °FPartly cloudy.3 mph87%29.80 "Hg5 mi
5:30 AM34 °FPartly cloudy.5 mph87%29.83 "Hg5 mi
5:00 AM32 °FPartly cloudy.1 mph93%29.83 "Hg5 mi
4:30 AM34 °FPartly cloudy.3 mph81%29.83 "HgN/A
4:00 AM34 °FPartly cloudy.3 mph87%29.86 "HgN/A
3:30 AM34 °FPartly cloudy.3 mph87%29.86 "HgN/A
3:00 AM34 °FPartly cloudy.3 mph87%29.86 "HgN/A
2:30 AM34 °FPartly cloudy.2 mph81%29.89 "HgN/A
2:00 AM32 °FPartly cloudy.2 mph87%29.89 "HgN/A
1:30 AM32 °FPartly cloudy.2 mph93%29.89 "HgN/A
1:00 AM32 °FPartly cloudy.2 mph93%29.89 "HgN/A
Weather by CustomWeather, © 2014

See weather overviewHow to use our weather pages